星链-3114 (STARLINK-3114 )

导读

STARLINK-3114是由美国于2021年11月13日发射的星链卫星,隶属于SpaceX公司的星链互联网星座项目。星链计划旨在构建全球卫星互联网,为全球偏远地区等提供高速网络服务,该卫星承担低轨通信任务,是星链星座实现全球覆盖布局的重要组成部分。

基本信息
目录编号:
49426
目录名称:
STARLINK-3114
国际标识:
2021-104U
轨道中心:
EARTH
卫星名称:
星链-3114
卫星全名:
星链-3114 (STARLINK-3114 )
卫星状态:
在轨 (已飞行1678 天)
发射日期:
2021-11-13 UTC
国别 :
美国 (US)
星等 :
--
轨道信息
数据来源 国际轨道数据 AOE轨道数据
星历时间 2026-06-17T10:36:44+0800
1天前
查看轨道信息
2026-06-15T05:00:00+0800
3天前
查看轨道信息
半长轴 6917.917km 6917.863km
偏心率 0.0001323 0.0001457
轨道倾角 53.161° 53.159°
近地点辐角 85.089° 78.782°
升交点赤经 142.717° 152.758°
平近点角 275.025° 20.985°
近地点 538.864km 538.718km
远地点 540.696km 540.734km
周期 95.438分钟 95.437分钟
每日圈数 15.088282 15.088458
详细信息
固有亮度:
5
最大亮度:
2.5
卫星平台:
Starlink v1.5
覆盖范围:
全球
运营商:
太空探索技术公司
运营商所在国:
美国
制造商(研发单位):
太空探索技术公司
制造商所在国:
美国
使用方式:
暂无
卫星简介
星链(Starlink)计划是由太空探索技术公司(SpaceX)提出的一个巨型低轨卫星互联网星座项目,计划在2019年至2024年间在太空搭建由约1.2万颗卫星组成的“星链”网络,其中1584颗将部署在地球上空550千米处的近地轨道,并从2020年开始工作。该卫星仍在工作。
2D轨道图
3D轨道图
轨道高度分析图
轨道倾角分析图
轨道综合分析图
查看轨道综合分析图